Weather History for KLWD - November, 2013

Change the Weather History Date:

Saturday, November 9, 2013

  Actual Average Record
Temperature  
Mean Temperature 52 °F 43 °F  
Max Temperature 61 °F 53 °F 75 °F (1999)
Min Temperature 42 °F 34 °F 12 °F (1991)
Degree Days  
Heating Degree Days 13 22  
Month to date heating degree days 161 181  
Since 1 July heating degree days 595 665  
Cooling Degree Days 0 0  
Month to date cooling degree days 0 0  
Year to date cooling degree days 1093 946  
Growing Degree Days 2 (Base 50)    
Moisture  
Dew Point 33 °F    
Average Humidity 51    
Maximum Humidity 70    
Minimum Humidity 32    
Precipitation  
Precipitation 0.00 in 0.08 in 1.56 in (1983)
Month to date precipitation 0.86 0.92  
Sea Level Pressure  
Sea Level Pressure 30.11 in    
Wind  
Wind Speed 13 mph (WNW)    
Max Wind Speed 22 mph    
Max Gust Speed 27 mph    
Visibility 10 miles    
Events      
T = Trace of Precipitation, MM = Missing Value Source: NWS Daily Summary

Daily Weather History Graph

Daily Weather History Graph

Search for Another Location

Airport or City:

Trip Planner

Search our weather history database for the weather conditions in past years. The results will help you decide how hot, cold, wet, or windy it might be!

Date:

Astronomy

Nov. 09, 2013 Rise Set
Actual Time 6:55 AM CST 5:02 PM CST
Civil Twilight 6:26 AM CST 5:31 PM CST
Nautical Twilight 5:53 AM CST 6:04 PM CST
Astronomical Twilight 5:21 AM CST 6:36 PM CST
Moon 12:32 PM CST (11/9) 11:34 PM CST (11/9)
Length of Visible Light 11h 05m
Length of Day
10h 07m
Waxing Crescent, 44% of the Moon is Illuminated
Nov 9
Waxing Crescent
Nov 9
First Quarter
Nov 17
Full
Nov 25
Last Quarter
Dec 2
New

Hourly Weather History & Observations

Time (CST) Temp. Windchill Dew Point Humidity Pressure Visibility Wind Dir Wind Speed Gust Speed Precip Events Conditions
12:53 AM 48.9 °F - 33.1 °F 54% 29.92 in 10.0 mi SW 12.7 mph - N/A   Clear
1:53 AM 48.9 °F - 33.1 °F 54% 29.94 in 10.0 mi WSW 13.8 mph - N/A   Clear
2:53 AM 46.9 °F - 33.1 °F 59% 29.94 in 10.0 mi SW 11.5 mph - N/A   Clear
3:53 AM 45.0 °F 39.3 °F 33.1 °F 63% 29.95 in 10.0 mi SW 11.5 mph - N/A   Clear
4:53 AM 46.0 °F 40.2 °F 33.1 °F 61% 29.97 in 10.0 mi SW 12.7 mph - N/A   Clear
5:53 AM 44.1 °F 39.0 °F 33.1 °F 65% 30.00 in 10.0 mi WSW 9.2 mph - N/A   Clear
6:53 AM 43.0 °F 37.2 °F 33.1 °F 68% 30.03 in 10.0 mi WSW 10.4 mph - N/A   Clear
7:53 AM 45.0 °F 39.3 °F 33.1 °F 63% 30.05 in 10.0 mi WSW 11.5 mph - N/A   Clear
8:53 AM 48.9 °F - 33.1 °F 54% 30.08 in 10.0 mi West 15.0 mph - N/A   Clear
9:53 AM 55.0 °F - 33.1 °F 43% 30.10 in 10.0 mi West 18.4 mph - N/A   Clear
10:53 AM 57.0 °F - 34.0 °F 42% 30.12 in 10.0 mi WNW 18.4 mph - N/A   Clear
11:53 AM 59.0 °F - 34.0 °F 39% 30.12 in 10.0 mi WNW 18.4 mph - N/A   Clear
12:53 PM 60.1 °F - 33.1 °F 36% 30.12 in 10.0 mi West 13.8 mph 25.3 mph N/A   Clear
1:53 PM 61.0 °F - 33.1 °F 35% 30.13 in 10.0 mi WNW 19.6 mph - N/A   Clear
2:53 PM 61.0 °F - 33.1 °F 35% 30.13 in 10.0 mi WNW 15.0 mph - N/A   Clear
3:53 PM 60.1 °F - 30.9 °F 33% 30.15 in 10.0 mi WNW 13.8 mph - N/A   Clear
4:53 PM 55.0 °F - 33.1 °F 43% 30.16 in 10.0 mi NW 9.2 mph - N/A   Clear
5:53 PM 48.9 °F - 32.0 °F 52% 30.18 in 10.0 mi NW 9.2 mph - N/A   Clear
6:53 PM 48.9 °F - 33.1 °F 54% 30.21 in 10.0 mi NW 9.2 mph - N/A   Clear
7:53 PM 46.9 °F - 34.0 °F 61% 30.23 in 10.0 mi NW 9.2 mph - N/A   Clear
8:53 PM 46.0 °F 41.4 °F 34.0 °F 63% 30.26 in 10.0 mi NW 9.2 mph - N/A   Clear
9:53 PM 46.0 °F 41.0 °F 33.1 °F 61% 30.29 in 10.0 mi NNW 10.4 mph - N/A   Clear
10:53 PM 45.0 °F 39.7 °F 30.9 °F 58% 30.30 in 10.0 mi NNW 10.4 mph - N/A   Clear
11:53 PM 42.1 °F 35.2 °F 30.9 °F 65% 30.31 in 10.0 mi North 12.7 mph - N/A   Clear